Weather History for Hanford, CA

Change the Weather History Date:

Thursday, October 18, 2012

  Actual Average Record
Temperature  
Mean Temperature 75 °F 63 °F  
Max Temperature 96 °F 78 °F 96 °F (2012)
Min Temperature 53 °F 47 °F 40 °F (1998)
Degree Days  
Heating Degree Days 0    
Month to date heating degree days 20  
Since 1 July heating degree days 20  
Cooling Degree Days 10    
Month to date cooling degree days 86  
Year to date cooling degree days 2009  
Growing Degree Days 23 (Base 50)    
Moisture  
Dew Point 53 °F    
Average Humidity 56    
Maximum Humidity 93    
Minimum Humidity 19    
Precipitation  
Precipitation 0.00 in 0.02 in 0.06 in (2004)
Month to date precipitation 0.02 0.18  
Year to date precipitation 4.60 7.15  
Since 1 July precipitation 0.02 0.39  
Snow  
Snow 0.00 in - - ()
Month to date snowfall 0.0  
Since 1 July snowfall 0.0  
Since 1 September snowfall 0.0  
Snow Depth 0.00 in    
Sea Level Pressure  
Sea Level Pressure 29.94 in    
Wind  
Wind Speed 3 mph (NW)    
Max Wind Speed 15 mph    
Max Gust Speed 18 mph    
Visibility 7 miles    
Events      
T = Trace of Precipitation, MM = Missing Value Source: NWS Daily Summary

Daily Weather History Graph

Daily Weather History Graph

Search for Another Location

Airport:

Trip Planner

Search our weather history database for the weather conditions in past years. The results will help you decide how hot, cold, wet, or windy it might be!

Date:

Astronomy

Oct. 18, 2012 Rise Set
Actual Time 7:08 AM PDT 6:17 PM PDT
Civil Twilight 6:42 AM PDT 6:43 PM PDT
Nautical Twilight 6:12 AM PDT 7:13 PM PDT
Astronomical Twilight 5:42 AM PDT 7:43 PM PDT
Moon 10:50 AM PDT (10/18) 9:03 PM PDT (10/18)
Length of Visible Light 12h 00m
Length of Day
11h 08m
Waxing Crescent, 15% of the Moon is Illuminated
Oct 18
Waxing Crescent
Oct 21
First Quarter
Oct 29
Full
Nov 6
Last Quarter
Nov 13
New

Hourly Weather History & Observations

Time (PDT) Temp. Heat Index Dew Point Humidity Pressure Visibility Wind Dir Wind Speed Gust Speed Precip Events Conditions
12:53 AM 57.9 °F - 54.0 °F 87% 29.93 in 6.0 mi Calm Calm - N/A   Clear
1:53 AM 60.1 °F - 55.0 °F 83% 29.93 in 6.0 mi Calm Calm - N/A   Haze
2:53 AM 57.9 °F - 55.0 °F 90% 29.93 in 5.0 mi Calm Calm - N/A   Clear
3:53 AM 57.0 °F - 54.0 °F 89% 29.92 in 5.0 mi Calm Calm - N/A   Clear
4:53 AM 55.9 °F - 53.1 °F 90% 29.93 in 6.0 mi Calm Calm - N/A   Clear
5:53 AM 57.0 °F - 53.1 °F 87% 29.94 in 5.0 mi Calm Calm - N/A   Clear
6:53 AM 55.0 °F - 50.0 °F 83% 29.94 in 5.0 mi Calm Calm - N/A   Haze
7:21 AM 53.6 °F - 48.2 °F 82% 29.94 in 2.5 mi Calm Calm - N/A   Haze
7:31 AM 55.4 °F - 51.8 °F 88% 29.94 in 3.0 mi Calm Calm - N/A   Clear
7:53 AM 55.9 °F - 51.1 °F 84% 29.96 in 2.5 mi Calm Calm - N/A   Haze
8:03 AM 59.0 °F - 53.6 °F 82% 29.95 in 4.0 mi Calm Calm - N/A   Haze
8:53 AM 64.9 °F - 55.0 °F 70% 29.98 in 5.0 mi Calm Calm - N/A   Haze
9:53 AM 70.0 °F - 55.9 °F 61% 29.99 in 5.0 mi Calm Calm - N/A   Haze
10:53 AM 77.0 °F - 55.9 °F 48% 29.99 in 5.0 mi Calm Calm - N/A   Haze
11:53 AM 84.0 °F 83.0 °F 55.9 °F 38% 29.97 in 6.0 mi ENE 4.6 mph - N/A   Haze
12:53 PM 88.0 °F - 52.0 °F 29% 29.95 in 7.0 mi Calm Calm - N/A   Clear
1:53 PM 91.0 °F - 45.0 °F 20% 29.93 in 10.0 mi Calm Calm - N/A   Clear
2:53 PM 93.0 °F - 45.0 °F 19% 29.91 in 10.0 mi WSW 3.5 mph - N/A   Clear
3:53 PM 93.9 °F - 45.0 °F 18% 29.91 in 8.0 mi Calm Calm - N/A   Clear
4:53 PM 93.9 °F - 44.1 °F 18% 29.90 in 10.0 mi NW 3.5 mph - N/A   Clear
5:53 PM 87.1 °F 85.3 °F 55.0 °F 33% 29.90 in 8.0 mi NNE 4.6 mph - N/A   Clear
6:53 PM 78.1 °F - 57.9 °F 50% 29.91 in 9.0 mi NNW 3.5 mph - N/A   Clear
7:53 PM 77.0 °F - 57.0 °F 50% 29.93 in 10.0 mi NW 5.8 mph - N/A   Clear
8:53 PM 75.0 °F - 57.0 °F 53% 29.94 in 9.0 mi NW 6.9 mph - N/A   Clear
9:53 PM 78.1 °F - 54.0 °F 43% 29.95 in 9.0 mi NW 10.4 mph - N/A   Clear
10:53 PM 73.9 °F - 55.0 °F 52% 29.96 in 8.0 mi NW 11.5 mph - N/A   Clear
11:53 PM 72.0 °F - 55.9 °F 57% 29.97 in 10.0 mi NW 11.5 mph - N/A   Clear